Simultaneous Nadir Overpasses (SNOs) Predictions

Prediction of SNOs between METOP-A and NOAA-19 Satellite Orbit:

Table of predicted SNOs for the next 14.0 days since TLE Epoch: 1/23/2015
Index Date (METOP-A) Time (METOP-A) Lat,Lon (METOP-A) SZA (METOP-A ) Date (NOAA-19) Time (NOAA-19) Lat,Lon (NOAA-19) SZA (NOAA-19 ) Distance(km) Time Diff (sec)
1 01/31/2015 16:41:35 75.07, -72.96 92.39 01/31/2015 16:40:27 75.10, -75.51 92.52 73.26 68
2 01/31/2015 17:32:25 -74.65, 93.22 88.00 01/31/2015 17:31:13 -74.64, 93.11 88.00 3.80 72
3 01/31/2015 18:23:06 74.61, -99.55 91.96 01/31/2015 18:22:20 74.63, -99.65 91.98 3.42 46
4 01/31/2015 19:13:48 -74.59, 67.71 88.08 01/31/2015 19:13:15 -74.59, 67.73 88.07 0.72 33
5 01/31/2015 20:04:28 74.60,-124.94 91.92 01/31/2015 20:04:22 74.58,-125.03 91.91 3.09 6
6 01/31/2015 20:55:09 -74.57, 42.32 88.12 01/31/2015 20:55:16 -74.55, 42.35 88.14 3.02 7
7 01/31/2015 21:45:50 74.53,-150.45 91.84 01/31/2015 21:46:23 74.54,-150.40 91.84 1.45 33
8 01/31/2015 22:36:31 -74.56, 16.94 88.15 01/31/2015 22:37:19 -74.55, 16.84 88.16 3.18 48
9 01/31/2015 23:27:12 74.51,-175.84 91.81 01/31/2015 23:28:26 74.54,-175.91 91.82 3.27 74
10 02/01/2015 00:18:04 -74.00, -9.82 88.67 02/01/2015 00:19:11 -74.02, -7.27 88.75 78.03 67




NCC Satellite Simultaneous Nadir Overpasses (SNOs) Prediction Service
